Time,TemperatureF,DewpointF,PressureIn,WindDirection,WindDirectionDegrees,WindSpeedMPH,WindSpeedGustMPH,Humidity,HourlyPrecipIn,Conditions,Clouds,dailyrainin,SoftwareType,DateUTC
2013-05-20 00:00:00,60.3,60.3,29.53,SW,221,3.0,5.0,96,0.00,,,0.59,meteohub,2013-05-20 05:00:00,
2013-05-20 00:05:00,60.1,60.1,29.53,SW,224,5.0,5.0,96,0.00,,,0.59,meteohub,2013-05-20 05:05:00,
2013-05-20 00:10:00,60.1,60.4,29.53,SSW,207,3.0,6.0,97,0.00,,,0.00,meteohub,2013-05-20 05:10:00,
2013-05-20 00:15:00,60.3,60.3,29.53,South,180,3.0,6.0,97,0.00,,,0.00,meteohub,2013-05-20 05:15:00,
2013-05-20 00:20:00,60.4,60.3,29.53,South,187,5.0,6.0,97,0.00,,,0.00,meteohub,2013-05-20 05:20:00,
2013-05-20 00:25:00,60.4,60.4,29.53,SSW,193,6.0,8.0,98,0.00,,,0.00,meteohub,2013-05-20 05:25:00,
2013-05-20 00:30:00,60.4,60.4,29.53,South,169,4.0,8.0,98,0.00,,,0.00,meteohub,2013-05-20 05:30:00,
2013-05-20 00:35:00,60.4,60.6,29.53,SSW,205,6.0,8.0,98,0.00,,,0.00,meteohub,2013-05-20 05:35:00,
2013-05-20 00:40:00,60.6,60.6,29.53,South,176,5.0,9.0,98,0.00,,,0.00,meteohub,2013-05-20 05:40:00,
2013-05-20 00:45:00,60.6,60.8,29.53,SSW,211,3.0,9.0,98,0.00,,,0.00,meteohub,2013-05-20 05:45:00,
2013-05-20 00:50:00,60.6,60.8,29.53,SSW,205,6.0,8.0,98,0.00,,,0.00,meteohub,2013-05-20 05:50:00,
2013-05-20 00:55:00,60.6,60.8,29.53,SW,215,4.0,7.0,98,0.00,,,0.00,meteohub,2013-05-20 05:55:00,
2013-05-20 01:00:00,60.6,60.8,29.53,SW,216,6.0,8.0,98,0.00,,,0.00,meteohub,2013-05-20 06:00:00,
2013-05-20 01:06:00,60.6,60.8,29.53,SW,226,6.0,8.0,98,0.00,,,0.00,meteohub,2013-05-20 06:06:00,
2013-05-20 01:11:00,60.6,60.8,29.53,South,180,5.0,8.0,98,0.00,,,0.00,meteohub,2013-05-20 06:11:00,
2013-05-20 01:16:00,60.6,60.8,29.53,SSW,206,6.0,8.0,98,0.00,,,0.00,meteohub,2013-05-20 06:16:00,
2013-05-20 01:21:00,60.6,60.6,29.56,SW,218,6.0,9.0,98,0.00,,,0.00,meteohub,2013-05-20 06:21:00,
2013-05-20 01:26:00,60.4,60.8,29.56,SW,218,4.0,9.0,98,0.00,,,0.00,meteohub,2013-05-20 06:26:00,
2013-05-20 01:31:00,60.4,60.8,29.56,SW,217,6.0,8.0,98,0.00,,,0.00,meteohub,2013-05-20 06:31:00,
2013-05-20 01:36:00,60.4,60.8,29.53,SW,217,4.0,8.0,98,0.00,,,0.00,meteohub,2013-05-20 06:36:00,
2013-05-20 01:41:00,60.4,60.8,29.53,SW,233,6.0,8.0,98,0.00,,,0.00,meteohub,2013-05-20 06:41:00,
2013-05-20 01:46:00,60.6,60.8,29.53,SW,235,5.0,8.0,98,0.00,,,0.00,meteohub,2013-05-20 06:46:00,
2013-05-20 01:51:00,60.4,60.8,29.53,WSW,238,6.0,8.0,98,0.00,,,0.00,meteohub,2013-05-20 06:51:00,
2013-05-20 01:56:00,60.4,60.8,29.53,SW,219,3.0,8.0,98,0.00,,,0.00,meteohub,2013-05-20 06:56:00,
2013-05-20 02:01:00,60.4,60.8,29.53,SW,235,3.0,8.0,98,0.00,,,0.00,meteohub,2013-05-20 07:01:00,
2013-05-20 02:06:00,60.4,60.4,29.53,SW,235,5.0,8.0,97,0.00,,,0.00,meteohub,2013-05-20 07:06:00,
2013-05-20 02:12:00,60.4,60.1,29.53,SSW,209,4.0,7.0,96,0.00,,,0.00,meteohub,2013-05-20 07:12:00,
2013-05-20 02:17:00,60.3,59.7,29.53,SW,217,4.0,8.0,95,0.00,,,0.00,meteohub,2013-05-20 07:17:00,
2013-05-20 02:22:00,60.3,59.5,29.53,SW,216,6.0,8.0,95,0.00,,,0.00,meteohub,2013-05-20 07:22:00,
2013-05-20 02:27:00,60.1,59.5,29.53,SSW,208,5.0,8.0,95,0.00,,,0.00,meteohub,2013-05-20 07:27:00,
2013-05-20 02:32:00,60.1,59.5,29.53,SW,226,6.0,8.0,95,0.00,,,0.00,meteohub,2013-05-20 07:32:00,
2013-05-20 02:37:00,60.1,59.2,29.53,SW,221,5.0,8.0,94,0.00,,,0.00,meteohub,2013-05-20 07:37:00,
2013-05-20 02:42:00,59.9,59.0,29.53,SW,219,5.0,8.0,93,0.00,,,0.00,meteohub,2013-05-20 07:42:00,
2013-05-20 02:47:00,59.9,58.8,29.53,SW,223,4.0,6.0,93,0.00,,,0.00,meteohub,2013-05-20 07:47:00,
2013-05-20 02:52:00,59.7,58.8,29.53,WSW,245,3.0,6.0,93,0.00,,,0.00,meteohub,2013-05-20 07:52:00,
2013-05-20 02:57:00,59.7,58.6,29.53,WSW,242,4.0,6.0,93,0.00,,,0.00,meteohub,2013-05-20 07:57:00,
2013-05-20 03:02:00,59.7,58.8,29.53,SW,218,4.0,9.0,94,0.00,,,0.00,meteohub,2013-05-20 08:02:00,
2013-05-20 03:07:00,59.5,58.6,29.53,SSW,211,8.0,9.0,93,0.00,,,0.00,meteohub,2013-05-20 08:07:00,
2013-05-20 03:12:00,59.7,58.5,29.53,WSW,247,3.0,9.0,93,0.00,,,0.00,meteohub,2013-05-20 08:12:00,
2013-05-20 03:17:00,59.5,58.5,29.53,SW,218,4.0,9.0,93,0.00,,,0.00,meteohub,2013-05-20 08:17:00,
2013-05-20 03:22:00,59.5,58.1,29.53,WSW,251,8.0,9.0,92,0.00,,,0.00,meteohub,2013-05-20 08:22:00,
2013-05-20 03:27:00,59.4,58.1,29.53,WSW,255,6.0,11.0,92,0.00,,,0.00,meteohub,2013-05-20 08:27:00,
2013-05-20 03:32:00,59.4,57.9,29.53,SW,227,3.0,11.0,92,0.00,,,0.00,meteohub,2013-05-20 08:32:00,
2013-05-20 03:37:00,59.4,57.6,29.53,SW,214,6.0,11.0,91,0.00,,,0.00,meteohub,2013-05-20 08:37:00,
2013-05-20 03:42:00,59.4,57.6,29.53,SW,230,5.0,10.0,91,0.00,,,0.00,meteohub,2013-05-20 08:42:00,
2013-05-20 03:47:00,59.4,57.4,29.53,SW,219,8.0,10.0,90,0.00,,,0.00,meteohub,2013-05-20 08:47:00,
2013-05-20 03:52:00,59.4,57.2,29.53,SW,223,6.0,9.0,90,0.00,,,0.00,meteohub,2013-05-20 08:52:00,
2013-05-20 03:57:00,59.4,56.8,29.53,SW,220,5.0,11.0,89,0.00,,,0.00,meteohub,2013-05-20 08:57:00,
2013-05-20 04:02:00,59.4,56.8,29.53,SSW,205,6.0,11.0,89,0.00,,,0.00,meteohub,2013-05-20 09:02:00,
2013-05-20 04:07:00,59.4,56.8,29.53,SW,225,6.0,11.0,89,0.00,,,0.00,meteohub,2013-05-20 09:07:00,
2013-05-20 04:12:00,59.2,57.2,29.53,SW,235,4.0,11.0,90,0.00,,,0.00,meteohub,2013-05-20 09:12:00,
2013-05-20 04:17:00,59.2,56.7,29.53,WSW,242,6.0,8.0,89,0.00,,,0.00,meteohub,2013-05-20 09:17:00,
2013-05-20 04:22:00,59.2,57.0,29.53,WSW,245,6.0,9.0,90,0.00,,,0.00,meteohub,2013-05-20 09:22:00,
2013-05-20 04:27:00,59.0,56.5,29.53,West,270,4.0,10.0,89,0.00,,,0.00,meteohub,2013-05-20 09:27:00,
2013-05-20 04:32:00,59.0,57.0,29.53,SW,234,5.0,11.0,91,0.00,,,0.00,meteohub,2013-05-20 09:32:00,
2013-05-20 04:37:00,59.0,57.0,29.50,SSW,209,8.0,11.0,91,0.00,,,0.00,meteohub,2013-05-20 09:37:00,
2013-05-20 04:42:00,59.0,57.0,29.50,WSW,251,3.0,11.0,91,0.00,,,0.00,meteohub,2013-05-20 09:42:00,
2013-05-20 04:47:00,58.8,56.8,29.50,SSW,211,11.0,11.0,91,0.00,,,0.00,meteohub,2013-05-20 09:47:00,
2013-05-20 04:52:00,59.0,57.4,29.53,SW,224,8.0,11.0,92,0.00,,,0.00,meteohub,2013-05-20 09:52:00,
2013-05-20 04:57:00,59.0,57.4,29.53,SW,233,8.0,11.0,92,0.00,,,0.00,meteohub,2013-05-20 09:57:00,
2013-05-20 05:02:00,59.2,57.6,29.53,SSW,209,3.0,11.0,92,0.00,,,0.00,meteohub,2013-05-20 10:02:00,
2013-05-20 05:07:00,59.2,57.9,29.53,WSW,250,8.0,10.0,93,0.00,,,0.00,meteohub,2013-05-20 10:07:00,
2013-05-20 05:12:00,59.4,58.1,29.53,WSW,237,5.0,10.0,94,0.00,,,0.00,meteohub,2013-05-20 10:12:00,
2013-05-20 05:17:00,59.4,58.1,29.53,West,261,5.0,11.0,93,0.00,,,0.00,meteohub,2013-05-20 10:17:00,
2013-05-20 05:22:00,59.5,58.8,29.56,SW,217,5.0,11.0,95,0.00,,,0.00,meteohub,2013-05-20 10:22:00,
2013-05-20 05:27:00,59.7,58.8,29.56,SW,218,6.0,11.0,95,0.00,,,0.00,meteohub,2013-05-20 10:27:00,
2013-05-20 05:32:00,59.9,59.4,29.56,WSW,257,4.0,10.0,96,0.00,,,0.00,meteohub,2013-05-20 10:32:00,
2013-05-20 05:37:00,60.1,59.7,29.56,WSW,242,5.0,11.0,97,0.00,,,0.00,meteohub,2013-05-20 10:37:00,
2013-05-20 05:42:00,60.1,59.9,29.56,WSW,258,4.0,11.0,97,0.00,,,0.00,meteohub,2013-05-20 10:42:00,
2013-05-20 05:47:00,60.3,60.3,29.56,WSW,256,3.0,11.0,98,0.00,,,0.00,meteohub,2013-05-20 10:47:00,
2013-05-20 05:52:00,60.4,60.4,29.56,West,262,0.0,8.0,98,0.00,,,0.00,meteohub,2013-05-20 10:52:00,
2013-05-20 05:57:00,60.4,60.4,29.56,WSW,243,6.0,8.0,98,0.00,,,0.00,meteohub,2013-05-20 10:57:00,
2013-05-20 06:02:00,60.4,60.6,29.56,West,281,6.0,8.0,98,0.00,,,0.00,meteohub,2013-05-20 11:02:00,
2013-05-20 06:07:00,60.4,60.8,29.56,West,265,3.0,8.0,98,0.00,,,0.00,meteohub,2013-05-20 11:07:00,
2013-05-20 06:12:00,60.6,60.8,29.56,WSW,258,4.0,8.0,98,0.00,,,0.00,meteohub,2013-05-20 11:12:00,
2013-05-20 06:17:00,60.6,60.6,29.56,WNW,293,0.0,10.0,97,0.00,,,0.00,meteohub,2013-05-20 11:17:00,
2013-05-20 06:22:00,60.6,59.9,29.59,West,267,5.0,10.0,95,0.00,,,0.00,meteohub,2013-05-20 11:22:00,
2013-05-20 06:27:00,60.4,59.2,29.59,West,278,3.0,10.0,93,0.00,,,0.00,meteohub,2013-05-20 11:27:00,
2013-05-20 06:32:00,60.4,59.2,29.59,West,264,3.0,8.0,94,0.00,,,0.00,meteohub,2013-05-20 11:32:00,
2013-05-20 06:37:00,60.4,59.7,29.59,West,281,3.0,6.0,95,0.00,,,0.00,meteohub,2013-05-20 11:37:00,
2013-05-20 06:42:00,60.4,59.7,29.59,WSW,258,3.0,6.0,95,0.00,,,0.00,meteohub,2013-05-20 11:42:00,
2013-05-20 06:47:00,60.6,59.9,29.59,WSW,255,4.0,6.0,95,0.00,,,0.00,meteohub,2013-05-20 11:47:00,
2013-05-20 06:52:00,60.8,59.5,29.59,West,271,4.0,6.0,94,0.00,,,0.00,meteohub,2013-05-20 11:52:00,
2013-05-20 06:57:00,61.0,60.1,29.59,West,263,4.0,6.0,95,0.00,,,0.00,meteohub,2013-05-20 11:57:00,
2013-05-20 07:02:00,61.2,60.1,29.59,West,264,4.0,6.0,95,0.00,,,0.00,meteohub,2013-05-20 12:02:00,
2013-05-20 07:07:00,61.2,59.7,29.62,NW,320,6.0,7.0,94,0.00,,,0.00,meteohub,2013-05-20 12:07:00,
2013-05-20 07:12:00,61.2,59.4,29.62,WSW,255,6.0,11.0,93,0.00,,,0.00,meteohub,2013-05-20 12:12:00,
2013-05-20 07:17:00,61.0,59.5,29.62,West,272,4.0,11.0,93,0.00,,,0.00,meteohub,2013-05-20 12:17:00,
2013-05-20 07:22:00,61.2,59.5,29.62,NW,310,6.0,11.0,93,0.00,,,0.00,meteohub,2013-05-20 12:22:00,
2013-05-20 07:27:00,61.2,59.2,29.62,WNW,303,3.0,8.0,92,0.00,,,0.00,meteohub,2013-05-20 12:27:00,
2013-05-20 07:32:00,61.2,58.3,29.62,WNW,286,10.0,10.0,89,0.00,,,0.00,meteohub,2013-05-20 12:32:00,
2013-05-20 07:37:00,61.2,58.6,29.62,West,260,5.0,10.0,90,0.00,,,0.00,meteohub,2013-05-20 12:37:00,
2013-05-20 07:42:00,61.3,58.3,29.62,WSW,258,3.0,10.0,89,0.00,,,0.00,meteohub,2013-05-20 12:42:00,
2013-05-20 07:47:00,61.3,58.5,29.62,WNW,299,3.0,10.0,89,0.00,,,0.00,meteohub,2013-05-20 12:47:00,
2013-05-20 07:52:00,61.5,58.6,29.62,NW,316,6.0,11.0,89,0.00,,,0.00,meteohub,2013-05-20 12:52:00,
2013-05-20 07:57:00,61.7,58.6,29.62,WNW,293,5.0,11.0,89,0.00,,,0.00,meteohub,2013-05-20 12:57:00,
2013-05-20 08:02:00,61.9,58.5,29.62,West,269,4.0,11.0,88,0.00,,,0.00,meteohub,2013-05-20 13:02:00,
2013-05-20 08:07:00,62.1,58.6,29.62,WSW,258,8.0,8.0,88,0.00,,,0.00,meteohub,2013-05-20 13:07:00,
2013-05-20 08:12:00,62.2,58.3,29.62,West,271,5.0,9.0,87,0.00,,,0.00,meteohub,2013-05-20 13:12:00,
2013-05-20 08:17:00,62.4,58.1,29.62,NNW,327,3.0,9.0,86,0.00,,,0.00,meteohub,2013-05-20 13:17:00,
2013-05-20 08:22:00,62.8,57.9,29.62,West,260,5.0,9.0,84,0.00,,,0.00,meteohub,2013-05-20 13:22:00,
2013-05-20 08:27:00,63.1,57.2,29.62,SW,230,3.0,9.0,82,0.00,,,0.00,meteohub,2013-05-20 13:27:00,
2013-05-20 08:32:00,63.9,57.2,29.62,West,263,9.0,9.0,81,0.00,,,0.00,meteohub,2013-05-20 13:32:00,
2013-05-20 08:37:00,64.4,57.2,29.65,West,272,6.0,11.0,81,0.00,,,0.00,meteohub,2013-05-20 13:37:00,
2013-05-20 08:42:00,64.9,57.7,29.65,West,259,6.0,11.0,82,0.00,,,0.00,meteohub,2013-05-20 13:42:00,
2013-05-20 08:47:00,65.3,57.2,29.65,WSW,248,5.0,11.0,80,0.00,,,0.00,meteohub,2013-05-20 13:47:00,
2013-05-20 08:52:00,65.8,56.8,29.65,West,275,8.0,10.0,79,0.00,,,0.00,meteohub,2013-05-20 13:52:00,
2013-05-20 08:57:00,66.2,56.7,29.65,NW,304,3.0,12.0,78,0.00,,,0.00,meteohub,2013-05-20 13:57:00,
2013-05-20 09:02:00,66.9,56.5,29.65,WNW,287,4.0,12.0,77,0.00,,,0.00,meteohub,2013-05-20 14:02:00,
2013-05-20 09:07:00,69.1,57.2,29.65,NNW,344,4.0,12.0,78,0.00,,,0.00,meteohub,2013-05-20 14:07:00,
2013-05-20 09:12:00,70.2,56.8,29.65,West,271,6.0,9.0,77,0.00,,,0.00,meteohub,2013-05-20 14:12:00,
2013-05-20 09:17:00,70.0,56.1,29.65,WSW,257,3.0,8.0,74,0.00,,,0.00,meteohub,2013-05-20 14:17:00,
2013-05-20 09:22:00,70.0,56.1,29.65,West,267,3.0,8.0,73,0.00,,,0.00,meteohub,2013-05-20 14:22:00,
2013-05-20 09:27:00,69.8,55.9,29.65,WSW,245,4.0,8.0,72,0.00,,,0.00,meteohub,2013-05-20 14:27:00,
2013-05-20 09:32:00,69.8,55.6,29.65,West,263,4.0,8.0,71,0.00,,,0.00,meteohub,2013-05-20 14:32:00,
2013-05-20 09:38:00,69.4,55.4,29.65,WSW,252,8.0,8.0,70,0.00,,,0.00,meteohub,2013-05-20 14:38:00,
2013-05-20 09:43:00,69.3,55.8,29.65,West,268,3.0,11.0,70,0.04,,,0.04,meteohub,2013-05-20 14:43:00,
2013-05-20 09:48:00,69.3,54.5,29.65,West,277,4.0,11.0,67,0.04,,,0.04,meteohub,2013-05-20 14:48:00,
2013-05-20 09:53:00,69.4,55.4,29.65,SW,220,8.0,11.0,68,0.04,,,0.04,meteohub,2013-05-20 14:53:00,
2013-05-20 09:59:00,69.6,55.2,29.65,WSW,250,8.0,11.0,67,0.04,,,0.04,meteohub,2013-05-20 14:59:00,
2013-05-20 10:04:00,70.0,54.5,29.65,West,278,6.0,11.0,65,0.04,,,0.04,meteohub,2013-05-20 15:04:00,
2013-05-20 10:09:00,70.3,55.0,29.65,WNW,284,8.0,11.0,66,0.04,,,0.04,meteohub,2013-05-20 15:09:00,
2013-05-20 10:15:00,70.3,55.0,29.65,West,261,0.0,11.0,66,0.04,,,0.04,meteohub,2013-05-20 15:15:00,
2013-05-20 10:20:00,70.5,55.0,29.65,West,281,4.0,8.0,66,0.04,,,0.04,meteohub,2013-05-20 15:20:00,
2013-05-20 10:25:00,70.3,55.4,29.65,West,268,2.0,8.0,67,0.04,,,0.04,meteohub,2013-05-20 15:25:00,
2013-05-20 10:30:00,70.7,56.3,29.65,WSW,251,4.0,9.0,68,0.04,,,0.04,meteohub,2013-05-20 15:30:00,
2013-05-20 10:35:00,70.7,55.9,29.65,West,259,8.0,13.0,67,0.00,,,0.04,meteohub,2013-05-20 15:35:00,
2013-05-20 10:40:00,70.9,55.8,29.65,West,261,5.0,13.0,66,0.00,,,0.04,meteohub,2013-05-20 15:40:00,
2013-05-20 10:45:00,71.2,56.3,29.65,SW,236,6.0,13.0,66,0.00,,,0.04,meteohub,2013-05-20 15:45:00,
2013-05-20 10:50:00,71.6,56.7,29.65,SW,231,7.0,11.0,66,0.00,,,0.04,meteohub,2013-05-20 15:50:00,
2013-05-20 10:55:00,71.8,55.9,29.65,WSW,251,8.0,11.0,64,0.00,,,0.04,meteohub,2013-05-20 15:55:00,
2013-05-20 11:01:00,72.1,55.8,29.65,WSW,249,3.0,11.0,64,0.00,,,0.04,meteohub,2013-05-20 16:01:00,
2013-05-20 11:06:00,72.9,56.3,29.62,WSW,246,6.0,11.0,64,0.00,,,0.04,meteohub,2013-05-20 16:06:00,
2013-05-20 11:11:00,73.0,56.5,29.62,SW,229,4.0,11.0,64,0.00,,,0.04,meteohub,2013-05-20 16:11:00,
2013-05-20 11:16:00,72.7,56.7,29.62,WSW,257,4.0,11.0,64,0.00,,,0.04,meteohub,2013-05-20 16:16:00,
2013-05-20 11:21:00,72.5,55.8,29.62,West,280,6.0,13.0,63,0.00,,,0.04,meteohub,2013-05-20 16:21:00,
2013-05-20 11:26:00,72.5,56.3,29.62,West,259,3.0,13.0,63,0.00,,,0.04,meteohub,2013-05-20 16:26:00,
2013-05-20 11:31:00,72.9,56.3,29.62,SW,233,6.0,13.0,62,0.00,,,0.04,meteohub,2013-05-20 16:31:00,
2013-05-20 11:36:00,73.2,55.9,29.65,SW,214,6.0,10.0,60,0.00,,,0.04,meteohub,2013-05-20 16:36:00,
2013-05-20 11:41:00,73.4,56.5,29.65,SW,219,9.0,11.0,61,0.00,,,0.04,meteohub,2013-05-20 16:41:00,
2013-05-20 11:46:00,73.2,56.7,29.65,WSW,241,11.0,11.0,61,0.00,,,0.04,meteohub,2013-05-20 16:46:00,
2013-05-20 11:51:00,72.7,55.4,29.65,WSW,243,8.0,11.0,59,0.00,,,0.04,meteohub,2013-05-20 16:51:00,
2013-05-20 11:56:00,72.9,54.7,29.65,West,281,6.0,11.0,57,0.00,,,0.04,meteohub,2013-05-20 16:56:00,
2013-05-20 12:02:00,73.0,54.0,29.65,West,259,7.0,15.0,56,0.00,,,0.04,meteohub,2013-05-20 17:02:00,
2013-05-20 12:07:00,73.0,55.0,29.65,WSW,240,7.0,15.0,57,0.00,,,0.04,meteohub,2013-05-20 17:07:00,
2013-05-20 12:12:00,73.4,54.3,29.65,SSW,199,5.0,15.0,56,0.00,,,0.04,meteohub,2013-05-20 17:12:00,
2013-05-20 12:17:00,73.0,56.1,29.65,WSW,251,8.0,15.0,59,0.00,,,0.04,meteohub,2013-05-20 17:17:00,
2013-05-20 12:22:00,73.8,54.5,29.65,WSW,244,3.0,15.0,55,0.00,,,0.04,meteohub,2013-05-20 17:22:00,
2013-05-20 12:27:00,74.3,55.0,29.65,SW,233,11.0,12.0,55,0.00,,,0.04,meteohub,2013-05-20 17:27:00,
2013-05-20 12:32:00,74.7,55.4,29.65,SW,225,6.0,13.0,56,0.00,,,0.04,meteohub,2013-05-20 17:32:00,
2013-05-20 12:37:00,74.5,54.7,29.65,SSW,198,10.0,13.0,54,0.00,,,0.04,meteohub,2013-05-20 17:37:00,
2013-05-20 12:42:00,74.3,54.1,29.65,SW,226,12.0,13.0,53,0.00,,,0.04,meteohub,2013-05-20 17:42:00,
2013-05-20 12:47:00,73.6,55.6,29.65,SSW,192,6.0,15.0,56,0.00,,,0.04,meteohub,2013-05-20 17:47:00,
2013-05-20 12:52:00,73.0,55.4,29.65,WSW,244,4.0,15.0,56,0.00,,,0.04,meteohub,2013-05-20 17:52:00,
2013-05-20 12:57:00,73.0,55.4,29.65,SW,234,8.0,15.0,56,0.00,,,0.04,meteohub,2013-05-20 17:57:00,
2013-05-20 13:02:00,72.7,55.0,29.65,SW,217,6.0,12.0,56,0.00,,,0.04,meteohub,2013-05-20 18:02:00,
2013-05-20 13:07:00,72.7,55.4,29.62,SSW,197,6.0,13.0,56,0.00,,,0.04,meteohub,2013-05-20 18:07:00,
2013-05-20 13:12:00,73.0,54.5,29.62,WSW,244,9.0,15.0,54,0.00,,,0.04,meteohub,2013-05-20 18:12:00,
2013-05-20 13:17:00,73.6,57.0,29.62,SSW,210,9.0,15.0,58,0.00,,,0.04,meteohub,2013-05-20 18:17:00,
2013-05-20 13:22:00,74.1,56.1,29.62,SW,220,5.0,14.0,55,0.00,,,0.04,meteohub,2013-05-20 18:22:00,
2013-05-20 13:27:00,74.8,55.6,29.62,WSW,249,8.0,15.0,54,0.00,,,0.04,meteohub,2013-05-20 18:27:00,
2013-05-20 13:32:00,75.0,54.7,29.62,SSW,206,6.0,15.0,52,0.00,,,0.04,meteohub,2013-05-20 18:32:00,
2013-05-20 13:37:00,75.2,55.8,29.62,SW,222,11.0,15.0,53,0.00,,,0.04,meteohub,2013-05-20 18:37:00,
2013-05-20 13:42:00,75.4,55.4,29.62,SW,217,11.0,15.0,52,0.00,,,0.04,meteohub,2013-05-20 18:42:00,
2013-05-20 13:47:00,75.6,54.5,29.62,WSW,249,14.0,17.0,50,0.00,,,0.04,meteohub,2013-05-20 18:47:00,
2013-05-20 13:52:00,75.4,53.8,29.62,SSW,192,15.0,17.0,49,0.00,,,0.04,meteohub,2013-05-20 18:52:00,
2013-05-20 13:58:00,74.7,54.7,29.62,SSW,211,16.0,17.0,52,0.00,,,0.04,meteohub,2013-05-20 18:58:00,
2013-05-20 14:03:00,74.1,55.9,29.62,SSW,194,12.0,16.0,54,0.00,,,0.04,meteohub,2013-05-20 19:03:00,
2013-05-20 14:08:00,74.3,55.6,29.62,South,188,8.0,16.0,53,0.00,,,0.04,meteohub,2013-05-20 19:08:00,
2013-05-20 14:13:00,74.3,55.2,29.62,West,262,11.0,16.0,52,0.00,,,0.04,meteohub,2013-05-20 19:13:00,
2013-05-20 14:18:00,74.7,55.8,29.62,SSE,164,11.0,15.0,52,0.00,,,0.04,meteohub,2013-05-20 19:18:00,
2013-05-20 14:23:00,75.0,55.4,29.62,SSW,201,7.0,15.0,51,0.00,,,0.04,meteohub,2013-05-20 19:23:00,
2013-05-20 14:28:00,75.6,56.1,29.62,WSW,240,8.0,15.0,52,0.00,,,0.04,meteohub,2013-05-20 19:28:00,
2013-05-20 14:33:00,75.7,55.6,29.62,West,272,10.0,18.0,51,0.00,,,0.04,meteohub,2013-05-20 19:33:00,
2013-05-20 14:38:00,75.7,56.5,29.62,SSW,210,14.0,18.0,53,0.00,,,0.04,meteohub,2013-05-20 19:38:00,
2013-05-20 14:43:00,75.9,55.2,29.62,SSW,213,13.0,18.0,50,0.00,,,0.04,meteohub,2013-05-20 19:43:00,
2013-05-20 14:48:00,75.9,56.1,29.59,WNW,299,8.0,17.0,51,0.00,,,0.04,meteohub,2013-05-20 19:48:00,
2013-05-20 14:54:00,76.1,54.7,29.59,SW,230,13.0,17.0,49,0.00,,,0.04,meteohub,2013-05-20 19:54:00,
2013-05-20 14:59:00,75.7,54.9,29.59,SSW,192,19.0,20.0,49,0.00,,,0.04,meteohub,2013-05-20 19:59:00,
2013-05-20 15:04:00,75.4,55.4,29.59,SSW,203,15.0,20.0,51,0.00,,,0.04,meteohub,2013-05-20 20:04:00,
2013-05-20 15:09:00,75.0,55.9,29.59,SSW,202,6.0,20.0,52,0.00,,,0.04,meteohub,2013-05-20 20:09:00,
2013-05-20 15:14:00,74.8,55.8,29.59,West,264,13.0,19.0,52,0.00,,,0.04,meteohub,2013-05-20 20:14:00,
2013-05-20 15:19:00,74.7,55.2,29.59,SSW,204,11.0,15.0,51,0.00,,,0.04,meteohub,2013-05-20 20:19:00,
2013-05-20 15:24:00,74.7,54.5,29.59,WSW,237,17.0,17.0,50,0.00,,,0.04,meteohub,2013-05-20 20:24:00,
2013-05-20 15:29:00,74.5,55.2,29.59,SSW,209,9.0,15.0,51,0.00,,,0.04,meteohub,2013-05-20 20:29:00,
2013-05-20 15:34:00,75.2,56.7,29.59,West,272,4.0,17.0,52,0.00,,,0.04,meteohub,2013-05-20 20:34:00,
2013-05-20 15:40:00,75.9,55.6,29.59,WSW,251,8.0,17.0,50,0.00,,,0.04,meteohub,2013-05-20 20:40:00,
2013-05-20 15:45:00,75.9,55.8,29.59,SSW,209,8.0,15.0,51,0.00,,,0.04,meteohub,2013-05-20 20:45:00,
2013-05-20 15:50:00,75.4,54.7,29.59,SSW,210,8.0,16.0,50,0.00,,,0.04,meteohub,2013-05-20 20:50:00,
2013-05-20 15:55:00,75.4,55.0,29.59,SW,229,13.0,16.0,50,0.00,,,0.04,meteohub,2013-05-20 20:55:00,
2013-05-20 16:00:00,75.9,55.9,29.59,West,261,6.0,16.0,50,0.00,,,0.04,meteohub,2013-05-20 21:00:00,
2013-05-20 16:05:00,76.6,55.0,29.59,WSW,248,4.0,15.0,48,0.00,,,0.04,meteohub,2013-05-20 21:05:00,
2013-05-20 16:10:00,76.8,53.6,29.59,SW,232,15.0,15.0,46,0.00,,,0.04,meteohub,2013-05-20 21:10:00,
2013-05-20 16:16:00,77.0,53.6,29.59,WSW,250,8.0,15.0,45,0.00,,,0.04,meteohub,2013-05-20 21:16:00,
2013-05-20 16:21:00,77.2,52.9,29.59,WNW,295,8.0,15.0,44,0.00,,,0.04,meteohub,2013-05-20 21:21:00,
2013-05-20 16:26:00,77.4,52.5,29.59,WSW,237,8.0,15.0,43,0.00,,,0.04,meteohub,2013-05-20 21:26:00,
2013-05-20 16:31:00,77.5,51.3,29.59,SSW,213,13.0,15.0,41,0.00,,,0.04,meteohub,2013-05-20 21:31:00,
2013-05-20 16:36:00,77.5,52.2,29.56,SW,235,4.0,17.0,42,0.00,,,0.04,meteohub,2013-05-20 21:36:00,
2013-05-20 16:41:00,77.5,51.3,29.56,WSW,239,11.0,17.0,41,0.00,,,0.04,meteohub,2013-05-20 21:41:00,
2013-05-20 16:46:00,77.0,51.3,29.56,WSW,239,6.0,17.0,41,0.00,,,0.04,meteohub,2013-05-20 21:46:00,
2013-05-20 16:51:00,76.6,50.9,29.56,SW,230,8.0,17.0,41,0.00,,,0.04,meteohub,2013-05-20 21:51:00,
2013-05-20 16:56:00,76.5,50.4,29.56,WSW,244,8.0,17.0,40,0.00,,,0.04,meteohub,2013-05-20 21:56:00,
2013-05-20 17:01:00,76.6,50.5,29.56,SW,223,8.0,17.0,40,0.00,,,0.04,meteohub,2013-05-20 22:01:00,
2013-05-20 17:07:00,76.6,51.1,29.56,WSW,242,3.0,17.0,41,0.00,,,0.04,meteohub,2013-05-20 22:07:00,
2013-05-20 17:12:00,76.6,50.9,29.56,SSW,213,8.0,17.0,41,0.00,,,0.04,meteohub,2013-05-20 22:12:00,
2013-05-20 17:17:00,76.5,49.6,29.56,SSW,196,8.0,16.0,40,0.00,,,0.04,meteohub,2013-05-20 22:17:00,
2013-05-20 17:22:00,75.9,50.2,29.56,West,267,11.0,15.0,41,0.00,,,0.04,meteohub,2013-05-20 22:22:00,
2013-05-20 17:27:00,75.7,50.9,29.56,West,272,8.0,12.0,42,0.00,,,0.04,meteohub,2013-05-20 22:27:00,
2013-05-20 17:32:00,75.7,50.2,29.56,WSW,241,6.0,12.0,41,0.00,,,0.04,meteohub,2013-05-20 22:32:00,
2013-05-20 17:37:00,75.6,50.9,29.56,SW,234,8.0,12.0,42,0.00,,,0.04,meteohub,2013-05-20 22:37:00,
2013-05-20 17:42:00,75.6,50.7,29.56,West,271,8.0,11.0,42,0.00,,,0.04,meteohub,2013-05-20 22:42:00,
2013-05-20 17:47:00,75.4,50.7,29.56,West,266,9.0,10.0,42,0.00,,,0.04,meteohub,2013-05-20 22:47:00,
2013-05-20 17:52:00,75.4,50.5,29.53,WSW,250,5.0,15.0,42,0.00,,,0.04,meteohub,2013-05-20 22:52:00,
2013-05-20 17:57:00,75.7,50.5,29.53,West,266,8.0,15.0,42,0.00,,,0.04,meteohub,2013-05-20 22:57:00,
2013-05-20 18:02:00,77.7,51.1,29.53,SW,236,6.0,15.0,43,0.00,,,0.04,meteohub,2013-05-20 23:02:00,
2013-05-20 18:07:00,78.4,51.6,29.53,SW,226,4.0,11.0,44,0.00,,,0.04,meteohub,2013-05-20 23:07:00,
2013-05-20 18:12:00,79.7,50.9,29.53,WSW,243,8.0,13.0,42,0.00,,,0.04,meteohub,2013-05-20 23:12:00,
2013-05-20 18:17:00,80.1,51.1,29.53,WSW,251,6.0,13.0,42,0.00,,,0.04,meteohub,2013-05-20 23:17:00,
2013-05-20 18:22:00,78.6,50.9,29.53,West,269,8.0,13.0,42,0.00,,,0.04,meteohub,2013-05-20 23:22:00,
2013-05-20 18:27:00,78.6,50.2,29.53,WNW,284,8.0,13.0,41,0.00,,,0.04,meteohub,2013-05-20 23:27:00,
2013-05-20 18:32:00,77.9,49.5,29.53,South,173,8.0,13.0,40,0.00,,,0.04,meteohub,2013-05-20 23:32:00,
2013-05-20 18:37:00,76.6,49.5,29.53,WSW,247,5.0,15.0,40,0.00,,,0.04,meteohub,2013-05-20 23:37:00,
2013-05-20 18:42:00,75.9,50.7,29.53,West,266,5.0,15.0,42,0.00,,,0.04,meteohub,2013-05-20 23:42:00,
2013-05-20 18:47:00,75.4,49.8,29.53,West,266,4.0,15.0,41,0.00,,,0.04,meteohub,2013-05-20 23:47:00,
2013-05-20 18:52:00,75.0,49.6,29.56,SW,235,6.0,15.0,41,0.00,,,0.04,meteohub,2013-05-20 23:52:00,
2013-05-20 18:57:00,74.7,49.6,29.56,West,259,8.0,15.0,41,0.00,,,0.04,meteohub,2013-05-20 23:57:00,
2013-05-20 19:02:00,74.5,49.5,29.56,West,265,8.0,13.0,41,0.00,,,0.04,meteohub,2013-05-21 00:02:00,
2013-05-20 19:07:00,74.3,48.6,29.53,West,276,13.0,13.0,40,0.00,,,0.04,meteohub,2013-05-21 00:07:00,
2013-05-20 19:12:00,73.9,48.4,29.53,West,269,8.0,13.0,40,0.00,,,0.04,meteohub,2013-05-21 00:12:00,
2013-05-20 19:17:00,73.8,48.4,29.53,WSW,256,11.0,13.0,40,0.00,,,0.04,meteohub,2013-05-21 00:17:00,
2013-05-20 19:22:00,73.6,47.7,29.56,SW,224,4.0,13.0,39,0.00,,,0.04,meteohub,2013-05-21 00:22:00,
2013-05-20 19:27:00,73.4,48.9,29.56,NW,318,5.0,12.0,41,0.00,,,0.04,meteohub,2013-05-21 00:27:00,
2013-05-20 19:32:00,73.4,48.0,29.56,WSW,252,5.0,12.0,40,0.00,,,0.04,meteohub,2013-05-21 00:32:00,
2013-05-20 19:37:00,73.0,48.0,29.56,West,277,6.0,12.0,40,0.00,,,0.04,meteohub,2013-05-21 00:37:00,
2013-05-20 19:42:00,72.9,46.9,29.56,WSW,257,8.0,12.0,39,0.00,,,0.04,meteohub,2013-05-21 00:42:00,
2013-05-20 19:47:00,72.7,48.2,29.56,WSW,253,2.0,12.0,41,0.00,,,0.04,meteohub,2013-05-21 00:47:00,
2013-05-20 19:52:00,72.5,48.7,29.56,WSW,246,5.0,12.0,42,0.00,,,0.04,meteohub,2013-05-21 00:52:00,
2013-05-20 19:57:00,72.3,48.0,29.56,WSW,244,6.0,12.0,41,0.00,,,0.04,meteohub,2013-05-21 00:57:00,
2013-05-20 20:02:00,72.1,47.8,29.56,West,260,6.0,9.0,41,0.00,,,0.04,meteohub,2013-05-21 01:02:00,
2013-05-20 20:07:00,72.0,48.0,29.56,WSW,241,6.0,11.0,42,0.00,,,0.04,meteohub,2013-05-21 01:07:00,
2013-05-20 20:12:00,71.6,48.0,29.56,WSW,251,7.0,11.0,42,0.00,,,0.04,meteohub,2013-05-21 01:12:00,
2013-05-20 20:17:00,71.4,47.8,29.56,West,262,8.0,11.0,42,0.00,,,0.04,meteohub,2013-05-21 01:17:00,
2013-05-20 20:22:00,71.1,47.5,29.56,West,272,3.0,11.0,42,0.00,,,0.04,meteohub,2013-05-21 01:22:00,
2013-05-20 20:27:00,70.9,47.8,29.56,West,264,6.0,11.0,43,0.00,,,0.04,meteohub,2013-05-21 01:27:00,
2013-05-20 20:32:00,70.7,47.7,29.56,West,261,6.0,11.0,43,0.00,,,0.04,meteohub,2013-05-21 01:32:00,
2013-05-20 20:37:00,70.3,47.3,29.56,WSW,239,8.0,10.0,43,0.00,,,0.04,meteohub,2013-05-21 01:37:00,
2013-05-20 20:43:00,70.0,47.7,29.56,WSW,240,5.0,10.0,44,0.00,,,0.04,meteohub,2013-05-21 01:43:00,
2013-05-20 20:48:00,69.8,48.0,29.56,West,264,3.0,9.0,45,0.00,,,0.04,meteohub,2013-05-21 01:48:00,
2013-05-20 20:53:00,69.4,47.8,29.56,West,264,5.0,10.0,45,0.00,,,0.04,meteohub,2013-05-21 01:53:00,
2013-05-20 20:58:00,69.1,47.5,29.56,NW,318,8.0,10.0,45,0.00,,,0.04,meteohub,2013-05-21 01:58:00,
2013-05-20 21:03:00,68.7,47.8,29.56,WSW,254,7.0,8.0,46,0.00,,,0.04,meteohub,2013-05-21 02:03:00,
2013-05-20 21:08:00,68.5,48.6,29.56,SW,225,4.0,8.0,48,0.00,,,0.04,meteohub,2013-05-21 02:08:00,
2013-05-20 21:13:00,68.2,49.3,29.56,WNW,295,4.0,8.0,50,0.00,,,0.04,meteohub,2013-05-21 02:13:00,
2013-05-20 21:18:00,67.8,49.6,29.59,WSW,244,4.0,8.0,51,0.00,,,0.04,meteohub,2013-05-21 02:18:00,
2013-05-20 21:23:00,67.5,49.3,29.59,WNW,294,8.0,8.0,51,0.00,,,0.04,meteohub,2013-05-21 02:23:00,
2013-05-20 21:28:00,67.3,50.4,29.59,WNW,300,3.0,10.0,54,0.00,,,0.04,meteohub,2013-05-21 02:28:00,
2013-05-20 21:33:00,66.9,51.3,29.59,WSW,240,2.0,10.0,56,0.00,,,0.04,meteohub,2013-05-21 02:33:00,
2013-05-20 21:39:00,66.6,50.4,29.59,WNW,299,6.0,10.0,55,0.00,,,0.04,meteohub,2013-05-21 02:39:00,
2013-05-20 21:44:00,66.4,50.2,29.59,WNW,295,5.0,9.0,55,0.00,,,0.04,meteohub,2013-05-21 02:44:00,
2013-05-20 21:49:00,66.0,50.4,29.59,WNW,293,8.0,9.0,56,0.00,,,0.04,meteohub,2013-05-21 02:49:00,
2013-05-20 21:54:00,65.8,52.2,29.59,NW,308,5.0,9.0,60,0.00,,,0.04,meteohub,2013-05-21 02:54:00,
2013-05-20 21:59:00,65.7,51.8,29.59,West,265,6.0,10.0,60,0.00,,,0.04,meteohub,2013-05-21 02:59:00,
2013-05-20 22:04:00,65.3,51.6,29.59,West,276,5.0,10.0,60,0.00,,,0.04,meteohub,2013-05-21 03:04:00,
2013-05-20 22:09:00,64.9,52.2,29.59,WSW,247,3.0,13.0,62,0.00,,,0.04,meteohub,2013-05-21 03:09:00,
2013-05-20 22:14:00,64.6,52.7,29.59,NW,312,8.0,13.0,64,0.00,,,0.04,meteohub,2013-05-21 03:14:00,
2013-05-20 22:19:00,64.4,52.9,29.59,SW,234,4.0,10.0,65,0.00,,,0.04,meteohub,2013-05-21 03:19:00,
2013-05-20 22:24:00,63.9,53.1,29.59,West,278,8.0,11.0,66,0.00,,,0.04,meteohub,2013-05-21 03:24:00,
2013-05-20 22:29:00,63.9,53.2,29.59,West,265,8.0,11.0,67,0.00,,,0.04,meteohub,2013-05-21 03:29:00,
2013-05-20 22:35:00,63.7,53.6,29.59,WSW,255,4.0,10.0,68,0.00,,,0.04,meteohub,2013-05-21 03:35:00,
2013-05-20 22:40:00,63.5,54.3,29.59,SW,222,10.0,10.0,70,0.00,,,0.04,meteohub,2013-05-21 03:40:00,
2013-05-20 22:45:00,63.5,54.3,29.59,West,272,3.0,10.0,70,0.00,,,0.04,meteohub,2013-05-21 03:45:00,
2013-05-20 22:50:00,63.5,54.7,29.59,West,270,6.0,11.0,71,0.00,,,0.04,meteohub,2013-05-21 03:50:00,
2013-05-20 22:55:00,63.5,54.9,29.59,North,357,5.0,11.0,72,0.00,,,0.04,meteohub,2013-05-21 03:55:00,
2013-05-20 23:00:00,63.5,54.9,29.59,West,275,5.0,11.0,72,0.00,,,0.04,meteohub,2013-05-21 04:00:00,
2013-05-20 23:01:00,63.5,54.9,29.59,WNW,296,2.0,11.0,72,0.00,,,0.04,meteohub,2013-05-21 04:01:00,
2013-05-20 23:02:00,63.5,54.9,29.59,West,276,3.0,11.0,72,0.00,,,0.04,meteohub,2013-05-21 04:02:00,
2013-05-20 23:03:00,63.3,55.2,29.62,WNW,302,2.0,11.0,73,0.00,,,0.04,meteohub,2013-05-21 04:03:00,
2013-05-20 23:08:00,63.3,54.7,29.62,WNW,300,6.0,11.0,72,0.00,,,0.04,meteohub,2013-05-21 04:08:00,
2013-05-20 23:13:00,63.3,55.6,29.62,West,276,5.0,8.0,74,0.00,,,0.04,meteohub,2013-05-21 04:13:00,
2013-05-20 23:18:00,63.3,57.2,29.62,WSW,258,4.0,8.0,79,0.00,,,0.04,meteohub,2013-05-21 04:18:00,
2013-05-20 23:23:00,63.1,56.8,29.62,NW,308,5.0,8.0,79,0.00,,,0.04,meteohub,2013-05-21 04:23:00,
2013-05-20 23:28:00,63.1,57.0,29.62,West,275,8.0,8.0,81,0.00,,,0.04,meteohub,2013-05-21 04:28:00,
2013-05-20 23:33:00,63.1,57.4,29.62,West,279,8.0,10.0,82,0.00,,,0.04,meteohub,2013-05-21 04:33:00,
2013-05-20 23:39:00,63.0,57.7,29.62,West,278,8.0,10.0,84,0.00,,,0.04,meteohub,2013-05-21 04:39:00,
2013-05-20 23:44:00,62.6,58.3,29.62,WNW,286,6.0,10.0,86,0.00,,,0.04,meteohub,2013-05-21 04:44:00,
2013-05-20 23:49:00,62.2,58.3,29.59,West,263,3.0,13.0,86,0.00,,,0.04,meteohub,2013-05-21 04:49:00,
2013-05-20 23:54:00,62.1,59.0,29.59,West,276,4.0,13.0,88,0.00,,,0.04,meteohub,2013-05-21 04:54:00,
2013-05-20 23:59:00,61.9,58.6,29.59,West,262,4.0,9.0,88,0.00,,,0.04,meteohub,2013-05-21 04:59:00,